"Pseudo-MPEC" for C13VQ75

Created 2025 May 9 15:31:02 UT using Find_Orb

Click here for an explanation of pseudo-MPECs

 
 Astrometry: 
     C13VQ75* C2025 04 25.12914807 19 20.161+26 53 12.05   ~4P3lx20.84GVNEOCPV00
     C13VQ75  C2025 04 25.13478707 19 20.586+26 53 10.93   ~4P3l       VNEOCPV00
     C13VQ75  C2025 04 25.14040707 19 21.083+26 53 10.28   ~4P3l       VNEOCPV00
     C13VQ75  C2025 04 25.14601307 19 21.569+26 53 09.38   ~4P3l 20.77GVNEOCPV00
     C13VQ75  C2025 04 25.16611007 19 23.220+26 53 06.30   ~4P5H 20.5 RVNEOCP691
     C13VQ75  C2025 04 25.17755007 19 24.190+26 53 04.60   ~4P5H 20.7 RVNEOCP691
     C13VQ75  C2025 04 25.18898007 19 25.150+26 53 02.40   ~4P5H 20.4 RVNEOCP691
     C13VQ75 KC2025 04 26.12886107 20 44.981+26 50 36.10   ~4Q4l       VNEOCPI52
     C13VQ75 KC2025 04 26.15746607 20 47.314+26 50 31.09   ~4Q4l 20.77GVNEOCPI52
     C13VQ75 KC2025 04 26.16986007 20 48.386+26 50 29.40   ~4Q4l 20.18GVNEOCPI52
     C13VQ75 KC2025 04 26.18223907 20 49.405+26 50 27.46   ~4Q4l 20.06GVNEOCPI52
     C13VQ75 pC2025 04 26.81112107 21 43.19 +26 48 46.3    ~4QK2 20.4 GVNEOCPL01
     C13VQ75 KC2025 04 26.81448807 21 43.43 +26 48 46.6    ~4QK2 20.2 GVNEOCPL01
     C13VQ75 KC2025 04 26.81785307 21 43.78 +26 48 46.1    ~4QK2 20.2 GVNEOCPL01
     C13VQ75 pC2025 04 26.82125707 21 44.09 +26 48 45.5    ~4QK2 20.5 GVNEOCPL01
     C13VQ75  C2025 04 27.15870007 22 13.000+26 47 51.40   ~4R5V 20.5 RVNEOCP691
     C13VQ75  C2025 04 27.17740007 22 14.590+26 47 47.80   ~4R5V 20.6 RVNEOCP691
     C13VQ75  C2025 04 29.14416007 25 04.830+26 42 21.50   ~4T4V 20.5 RVNEOCP691
     C13VQ75  C2025 04 29.14759007 25 05.100+26 42 20.50   ~4T4V 20.1 RVNEOCP691
     C13VQ75 1C2025 04 29.83226007 26 04.988+26 40 21.80   ~53DH 21.2 GXNEOCP033
     C13VQ75 1C2025 04 29.83462007 26 05.197+26 40 21.00   ~53DH 21.1 GXNEOCP033
     C13VQ75 1C2025 04 29.83710007 26 05.406+26 40 20.60   ~53DH 21.2 GXNEOCP033
     C13VQ75 1C2025 04 30.84489007 27 34.067+26 37 23.89   ~4UKl 20.6 GXNEOCP033
     C13VQ75 1C2025 04 30.84607007 27 34.157+26 37 23.70   ~4UKl 20.5 GXNEOCP033
     C13VQ75 1C2025 04 30.84725007 27 34.247+26 37 23.70   ~4UKl 20.7 GXNEOCP033
     C13VQ75 1C2025 04 30.84843007 27 34.358+26 37 23.49   ~4UKl 20.2 GXNEOCP033
     C13VQ75  C2025 05 01.17058007 28 02.780+26 36 27.00   ~515H 20.4 RVNEOCP691
     C13VQ75  C2025 05 01.17396007 28 03.090+26 36 26.20   ~515H 20.7 RVNEOCP691
     C13VQ75  C2025 05 01.17734007 28 03.410+26 36 25.70   ~515H 20.8 RVNEOCP691
     C13VQ75  C2025 05 01.19333307 28 02.213+26 36 28.29   ~594l 20.00rUNEOCPI41
     C13VQ75  C2025 05 02.14204007 29 29.060+26 33 31.20   ~5252 20.8 RVNEOCP691
     C13VQ75  C2025 05 02.14711007 29 29.570+26 33 31.00   ~5252 19.9 RVNEOCP691
     C13VQ75  C2025 05 02.15218007 29 29.930+26 33 29.60   ~5252 21.0 RVNEOCP691
     C13VQ75  C2025 05 07.18091007 37 05.180+26 17 14.40   ~576H 21.1 RVNEOCP291
     C13VQ75  C2025 05 07.20765007 37 07.610+26 17 08.90   ~576H       VNEOCP291
     C13VQ75  C2025 05 08.17570007 38 36.870+26 13 48.30   ~588H 20.5 RVNEOCP691
     C13VQ75  C2025 05 08.18657007 38 37.890+26 13 46.20   ~588H 21.2 RVNEOCP691
     C13VQ75  C2025 05 08.19742907 38 38.860+26 13 44.10   ~588H 21.6 RVNEOCP691

Station data:
(033) Karl Schwarzschild Observatory, Tautenburg  (N50.980139 E11.711240)
   Germany.  Observer B. Stecklum. 1.34-m f/3 Schmidt + CCD.
(291) LPL/Spacewatch II  (N31.961669 W111.599905)  US/Arizona.  Observers J.
   V. Scotti, R. S. McMillan. 1.8-m f/2.7 reflector + CCD.
(691) Steward Observatory, Kitt Peak - Spacewatch  (N31.962174 W111.600327)
   US/Arizona.  Observer J. V. Scotti. 0.9-m f/3 reflector + CCD.
(I41) Palomar Mountain--ZTF  (N33.357336 W116.859780)  US/California.
   Observers B. T. Bolin, Z. T. F. Collaboration. Measurers B. T. Bolin,
   Z.-Y. Lin, F. J. Masci. 1.2-m f/2.4 Schmidt.
(I52) Steward Observatory, Mt. Lemmon Station  (N32.442570 W110.788920)
   US/Arizona.  Observers T. A. Pruyne, B. M. Africano, E. J. Christensen, G.
   A. Farneth, D. C. Fuls, A. R. Gibbs, A. D. Grauer, H. Gröller, J. A.
   Johnson, R. A. Kowalski, S. M. Larson, G. J. Leonard, D. Rankin, R. L.
   Seaman, F. C. Shelly, K. W. Wierzchoś. 1.0-m prime focus + CCD.
(L01) Višnjan Observatory, Tičan  (N45.290897 E13.749300)  Croatia.
   Observers K. Korlević, D. Pujagic, V. Dobos. Measurers D. Pujagic, K.
   Korlević. 1.0-m f/2.9 reflector + CCD.
(V00) Kitt Peak-Bok  (N31.963125 W111.600190)  US/Arizona.  Observers T. A.
   Pruyne, B. M. Africano, E. J. Christensen, G. A. Farneth, D. C. Fuls, A.
   R. Gibbs, A. D. Grauer, H. Gröller, J. A. Johnson, R. A. Kowalski, S. M.
   Larson, G. J. Leonard, D. Rankin, R. L. Seaman, F. C. Shelly, K. W.
   Wierzchoś. 2.25-m reflector + 4x4K mosaic CCD.

Orbital elements:  C13VQ75
   Perihelion 2025 Sep 9.01449 TT =  0:20:51 (JD 2460927.51449)
Epoch 2025 May  8.0 TT = JDT 2460803.5                           AutoNEOCP
M 336.12754181                      (J2000 ecliptic)
n   0.19249733     Peri.   79.14872
a   2.97065970     Node    86.11269
e   0.1501065      Incl.    7.04188
P   5.12011        H   15.64    G   0.15   q 2.52474415  Q 3.41657524
37 of 38 observations 2025 Apr. 25-May 8; mean residual 4".04
Residuals in arcseconds: 
250425 V00( .93-  .15+)   250426 L01  1.2+  .39+    250501 691  3.4+  .63-    
250425 V00  1.5-  .08-    250426 L01  1.5+  .35+    250501 691  3.5+  .80-    
250425 V00  1.1-  .17+    250427 691  1.7+  .03-    250501 691  3.9+  .68-    
250425 V00  .90-  .16+    250427 691  1.7+  .48-    250501 I41 31.2-  4.9+    
250425 691  1.3-  .29+    250429 691  3.2+  .11-    250502 691  3.6+  .79-    
250425 691  1.1-  .42+    250429 691  2.8+  .51-    250502 691  4.4+  .03-    
250425 691  1.0-  .05+    250429 033  3.3+  .56-    250502 691  3.2+  .47-    
250426 I52  .89+  .11-    250429 033  3.4+  .94-    250507 291  1.0+  .12-    
250426 I52  .11-  .45-    250429 033  3.3+  .89-    250507 291  .75+  .04+    
250426 I52  .25+  .10-    250430 033  3.8+  .83-    250508 691  .14-  .24-    
250426 I52  .09-  .01-    250430 033  3.6+  .80-    250508 691  .13+  .00     
250426 L01  .93+  .53-    250430 033  3.4+  .59-    250508 691  .28-  .25+    
250426 L01  .31+  .33+    250430 033  3.5+  .58-    

Ephemerides (geocentric):
Date (UTC) HH   RA             Dec           delta  r     elong  mag " sig PA
---- --------  ------------   ------------  ------ ------ -----  --- --------
2025 05 09 16  07 40 55.571   +26 08 32.56  2.8574 2.5752  63.7 21.0 9299  67
2025 05 09 17  07 40 59.458   +26 08 23.56  2.8579 2.5752  63.7 21.0 9350  67
2025 05 09 18  07 41 03.346   +26 08 14.55  2.8583 2.5752  63.7 21.0 9403  68
2025 05 09 19  07 41 07.235   +26 08 05.54  2.8587 2.5751  63.7 21.0 9455  68
2025 05 09 20  07 41 11.125   +26 07 56.52  2.8592 2.5751  63.6 21.0 9508  68
2025 05 09 21  07 41 15.016   +26 07 47.49  2.8596 2.5751  63.6 21.0 9562  68
2025 05 09 22  07 41 18.908   +26 07 38.45  2.8601 2.5750  63.6 21.0 9616  68
2025 05 09 23  07 41 22.801   +26 07 29.41  2.8605 2.5750  63.6 21.0 9670  69
2025 05 10 00  07 41 26.694   +26 07 20.35  2.8609 2.5750  63.5 21.0 9725  69
2025 05 10 01  07 41 30.588   +26 07 11.29  2.8614 2.5749  63.5 21.0 9780  69
2025 05 10 02  07 41 34.484   +26 07 02.23  2.8618 2.5749  63.5 21.0 9836  69
2025 05 10 03  07 41 38.380   +26 06 53.15  2.8623 2.5749  63.5 21.0 9892  69
2025 05 10 04  07 41 42.277   +26 06 44.07  2.8627 2.5748  63.4 21.0 9949  70
2025 05 10 05  07 41 46.175   +26 06 34.98  2.8631 2.5748  63.4 21.0 167'  70
2025 05 10 06  07 41 50.073   +26 06 25.88  2.8636 2.5748  63.4 21.0 168'  70
2025 05 10 07  07 41 53.973   +26 06 16.77  2.8640 2.5747  63.4 21.0 169'  70
2025 05 10 08  07 41 57.873   +26 06 07.66  2.8645 2.5747  63.3 21.0 170'  70
2025 05 10 09  07 42 01.775   +26 05 58.54  2.8649 2.5747  63.3 21.0 171'  70
2025 05 10 10  07 42 05.677   +26 05 49.41  2.8653 2.5746  63.3 21.0 172'  71
2025 05 10 11  07 42 09.580   +26 05 40.27  2.8658 2.5746  63.3 21.0 173'  71
2025 05 10 12  07 42 13.484   +26 05 31.12  2.8662 2.5746  63.2 21.0 174'  71
2025 05 10 13  07 42 17.389   +26 05 21.97  2.8667 2.5745  63.2 21.0 175'  71
2025 05 10 14  07 42 21.294   +26 05 12.81  2.8671 2.5745  63.2 21.0 176'  71
2025 05 10 15  07 42 25.201   +26 05 03.64  2.8675 2.5745  63.2 21.0 177'  72
2025 05 10 16  07 42 29.108   +26 04 54.47  2.8680 2.5744  63.1 21.0 178'  72
2025 05 10 17  07 42 33.016   +26 04 45.28  2.8684 2.5744  63.1 21.0 179'  72
2025 05 10 18  07 42 36.925   +26 04 36.09  2.8688 2.5744  63.1 21.0 180'  72
2025 05 10 19  07 42 40.835   +26 04 26.89  2.8693 2.5743  63.1 21.0 181'  72
2025 05 10 20  07 42 44.746   +26 04 17.69  2.8697 2.5743  63.0 21.0 182'  73
2025 05 10 21  07 42 48.658   +26 04 08.47  2.8702 2.5743  63.0 21.0 183'  73
2025 05 10 22  07 42 52.570   +26 03 59.25  2.8706 2.5742  63.0 21.0 184'  73
2025 05 10 23  07 42 56.483   +26 03 50.02  2.8710 2.5742  63.0 21.0 185'  73
2025 05 11 00  07 43 00.398   +26 03 40.78  2.8715 2.5742  62.9 21.0 186'  73
2025 05 11 01  07 43 04.313   +26 03 31.54  2.8719 2.5741  62.9 21.0 188'  73
2025 05 11 02  07 43 08.228   +26 03 22.28  2.8723 2.5741  62.9 21.0 189'  74
2025 05 11 03  07 43 12.145   +26 03 13.02  2.8728 2.5741  62.9 21.0 190'  74
2025 05 11 04  07 43 16.063   +26 03 03.75  2.8732 2.5740  62.8 21.0 191'  74
2025 05 11 05  07 43 19.981   +26 02 54.48  2.8737 2.5740  62.8 21.0 192'  74
2025 05 11 06  07 43 23.900   +26 02 45.19  2.8741 2.5740  62.8 21.0 193'  74
2025 05 11 07  07 43 27.821   +26 02 35.90  2.8745 2.5739  62.8 21.0 194'  74
2025 05 11 08  07 43 31.742   +26 02 26.60  2.8750 2.5739  62.7 21.0 196'  75
2025 05 11 09  07 43 35.663   +26 02 17.29  2.8754 2.5739  62.7 21.0 197'  75
2025 05 11 10  07 43 39.586   +26 02 07.98  2.8758 2.5738  62.7 21.0 198'  75
2025 05 11 11  07 43 43.509   +26 01 58.66  2.8763 2.5738  62.7 21.0 199'  75
2025 05 11 12  07 43 47.434   +26 01 49.32  2.8767 2.5738  62.6 21.0 200'  75
2025 05 11 13  07 43 51.359   +26 01 39.99  2.8771 2.5737  62.6 21.0 202'  75
2025 05 11 14  07 43 55.285   +26 01 30.64  2.8776 2.5737  62.6 21.0 203'  76
2025 05 11 15  07 43 59.212   +26 01 21.29  2.8780 2.5737  62.6 21.0 204'  76